John Murtha Johnstown Cambria County Airport Johnstown US
ICAO: KJST
IATA: JST
Category: Medium
Scheduled Services: Yes

Elevation: 2284 ft
TransAlt. 18000 ft.

Airport Communications:
ATIS:118.325
CLEVELAND CNTR:121.2
CTAF:125.75
GND:121.6
KEYSTONE OPS ARNG:36.5
ALTOONA RDO:122.65
TWR:125.75
UNICOM:122.95

KJST Zoom In..

Runways:

(A) RW 05 length 4386 ft width 100 ft
---- / hdg 49

(B) RW 15 length 7003 ft width 150 ft
---- / hdg 154

(C) RW 23 length 4386 ft width 100 ft
---- / hdg 229

(D) RW 33 length 7003 ft width 150 ft
ILS 110.10 / hdg 334

Location; KJST
Day. 19 / Time. 03.54 Zulu
* Altimeter: 30.10
* Temperature: 18° c. 64.4°f.
* Wind from: 260° Speed 04 kn.
Dewpoint: 12° c.
Visibility: 10 Statute Miles.
Clouds: Clear (automated report).

KJST 190354Z AUTO 26004KT 10SM CLR 18/12 A3010 RMK AO2 SLP181 T01780117


Wind From 260°
Speed 04 kn.

 
 
jpsmedia.com for Web Design worldairports.se 2018   terms of use